| time (UTC) | temp F | wind direction | speed MPH | gust MPH | rain 1hr in | rain 24hr in | rain mn in | humidity % | barometer mb |
| 20260504050529 | 55 | 0 | 0.0 | 3.0 | 0.00 | 0.00 | 0.00 | 76 | 1013.7 |
| 20260504045531 | 55 | 0 | 0.0 | 3.0 | 0.00 | 0.00 | 0.00 | 76 | 1013.5 |
| 20260504045031 | 55 | 0 | 0.0 | 4.0 | 0.00 | 0.00 | 0.00 | 75 | 1013.6 |
| 20260504044542 | 55 | 339 | 0.0 | 6.0 | 0.00 | 0.00 | 0.00 | 75 | 1013.6 |
| 20260504044031 | 55 | 340 | 2.0 | 6.0 | 0.00 | 0.00 | 0.00 | 75 | 1013.5 |
| 20260504043536 | 55 | 20 | 3.0 | 6.0 | 0.00 | 0.00 | 0.00 | 75 | 1013.5 |
| 20260504043043 | 56 | 0 | 1.0 | 5.0 | 0.00 | 0.00 | 0.00 | 75 | 1013.4 |
| 20260504042532 | 56 | 325 | 2.0 | 5.0 | 0.00 | 0.00 | 0.00 | 74 | 1013.4 |
| 20260504042030 | 56 | 5 | 1.0 | 5.0 | 0.00 | 0.00 | 0.00 | 75 | 1013.4 |
| 20260504041539 | 56 | 340 | 1.0 | 5.0 | 0.00 | 0.00 | 0.00 | 75 | 1013.3 |
| 20260504041028 | 56 | 341 | 0.0 | 5.0 | 0.00 | 0.00 | 0.00 | 75 | 1013.3 |
| 20260504040530 | 56 | 336 | 1.0 | 5.0 | 0.00 | 0.00 | 0.00 | 74 | 1013.3 |
| 20260504040040 | 56 | 38 | 1.0 | 4.0 | 0.00 | 0.00 | 0.00 | 74 | 1013.2 |
| 20260504035532 | 56 | 336 | 1.0 | 4.0 | 0.00 | 0.00 | 0.00 | 74 | 1013.2 |
| 20260504035029 | 57 | 352 | 1.0 | 4.0 | 0.00 | 0.00 | 0.00 | 74 | 1012.9 |
| 20260504034543 | 57 | 334 | 1.0 | 3.0 | 0.00 | 0.00 | 0.00 | 75 | 1012.9 |
| 20260504034029 | 57 | 11 | 0.0 | 4.0 | 0.00 | 0.00 | 0.00 | 75 | 1012.9 |
| 20260504033530 | 57 | 328 | 2.0 | 5.0 | 0.00 | 0.00 | 0.00 | 75 | 1012.8 |
| 20260504033054 | 57 | 24 | 1.0 | 5.0 | 0.00 | 0.00 | 0.00 | 74 | 1012.7 |
| 20260504032530 | 57 | 360 | 1.0 | 5.0 | 0.00 | 0.00 | 0.00 | 75 | 1012.7 |
| 20260504032032 | 57 | 352 | 2.0 | 5.0 | 0.00 | 0.00 | 0.00 | 75 | 1012.6 |
| 20260504031533 | 57 | 300 | 0.0 | 3.0 | 0.00 | 0.00 | 0.00 | 75 | 1012.5 |
| 20260504031030 | 57 | 0 | 0.0 | 3.0 | 0.00 | 0.00 | 0.00 | 74 | 1012.5 |
| 20260504030530 | 57 | 319 | 0.0 | 3.0 | 0.00 | 0.00 | 0.00 | 73 | 1012.5 |
| 20260504030049 | 57 | 338 | 1.0 | 3.0 | 0.00 | 0.00 | 0.00 | 74 | 1012.4 |
| 20260504025531 | 58 | 337 | 0.0 | 3.0 | 0.00 | 0.00 | 0.00 | 73 | 1012.4 |
| 20260504025031 | 58 | 315 | 1.0 | 3.0 | 0.00 | 0.00 | 0.00 | 73 | 1012.3 |
| 20260504024543 | 58 | 45 | 1.0 | 3.0 | 0.00 | 0.00 | 0.00 | 73 | 1012.2 |
| 20260504024028 | 58 | 323 | 1.0 | 3.0 | 0.00 | 0.00 | 0.00 | 73 | 1012.2 |
| 20260504023530 | 58 | 0 | 0.0 | 4.0 | 0.00 | 0.00 | 0.00 | 73 | 1012.2 |
| 20260504023037 | 58 | 0 | 0.0 | 4.0 | 0.00 | 0.00 | 0.00 | 72 | 1012.1 |
| 20260504022532 | 58 | 0 | 0.0 | 3.0 | 0.00 | 0.00 | 0.00 | 72 | 1012.1 |
| 20260504022030 | 58 | 0 | 1.0 | 3.0 | 0.00 | 0.00 | 0.00 | 72 | 1012.2 |
| 20260504021537 | 58 | 0 | 0.0 | 2.0 | 0.00 | 0.00 | 0.00 | 72 | 1012.0 |
| 20260504021030 | 58 | 0 | 0.0 | 2.0 | 0.00 | 0.00 | 0.00 | 72 | 1012.1 |
| 20260504020530 | 58 | 0 | 0.0 | 2.0 | 0.00 | 0.00 | 0.00 | 72 | 1012.1 |
| 20260504020044 | 58 | 329 | 0.0 | 2.0 | 0.00 | 0.00 | 0.00 | 72 | 1012.1 |
| 20260504015530 | 58 | 336 | 0.0 | 2.0 | 0.00 | 0.00 | 0.00 | 72 | 1012.1 |
| 20260504015033 | 58 | 321 | 0.0 | 2.0 | 0.00 | 0.00 | 0.00 | 73 | 1012.0 |
| 20260504014542 | 58 | 0 | 0.0 | 2.0 | 0.00 | 0.00 | 0.00 | 72 | 1012.0 |
| 20260504014032 | 58 | 0 | 0.0 | 3.0 | 0.00 | 0.00 | 0.00 | 72 | 1012.0 |
| 20260504013529 | 58 | 0 | 0.0 | 3.0 | 0.00 | 0.00 | 0.00 | 73 | 1012.0 |
| 20260504013042 | 58 | 0 | 0.0 | 3.0 | 0.00 | 0.00 | 0.00 | 73 | 1011.9 |
| 20260504012550 | 58 | 5 | 1.0 | 5.0 | 0.00 | 0.00 | 0.00 | 73 | 1011.9 |
| 20260504012032 | 58 | 344 | 3.0 | 8.0 | 0.00 | 0.00 | 0.00 | 74 | 1011.9 |
| 20260504011538 | 58 | 5 | 2.0 | 8.0 | 0.00 | 0.00 | 0.00 | 73 | 1011.9 |
| 20260504011034 | 58 | 334 | 2.0 | 8.0 | 0.00 | 0.00 | 0.00 | 73 | 1012.0 |
| 20260504010533 | 58 | 335 | 3.0 | 8.0 | 0.00 | 0.00 | 0.00 | 73 | 1012.1 |
| 20260504010037 | 58 | 345 | 4.0 | 8.0 | 0.00 | 0.00 | 0.00 | 73 | 1012.1 |
| 20260504005529 | 58 | 319 | 2.0 | 7.0 | 0.00 | 0.00 | 0.00 | 74 | 1012.0 |
| 20260504005029 | 58 | 68 | 1.0 | 5.0 | 0.00 | 0.00 | 0.00 | 74 | 1012.0 |
| 20260504004535 | 58 | 20 | 3.0 | 9.0 | 0.00 | 0.00 | 0.00 | 74 | 1012.0 |
| 20260504004028 | 58 | 14 | 4.0 | 9.0 | 0.00 | 0.00 | 0.00 | 74 | 1012.0 |
| 20260504003530 | 58 | 5 | 3.0 | 8.0 | 0.00 | 0.00 | 0.00 | 73 | 1012.0 |
| 20260504003042 | 58 | 329 | 3.0 | 7.0 | 0.00 | 0.00 | 0.00 | 73 | 1011.9 |
| 20260504002532 | 58 | 311 | 3.0 | 7.0 | 0.00 | 0.00 | 0.00 | 73 | 1011.9 |
| 20260504002029 | 58 | 344 | 0.0 | 5.0 | 0.00 | 0.00 | 0.00 | 74 | 1011.8 |
| 20260504001544 | 58 | 13 | 2.0 | 5.0 | 0.00 | 0.00 | 0.00 | 74 | 1011.8 |
| 20260504001031 | 58 | 336 | 1.0 | 4.0 | 0.00 | 0.00 | 0.00 | 74 | 1011.7 |
| 20260504000530 | 58 | 343 | 1.0 | 4.0 | 0.00 | 0.00 | 0.00 | 74 | 1011.7 |
| 20260504000101 | 58 | 321 | 0.0 | 3.0 | 0.00 | 0.00 | 0.00 | 73 | 1011.7 |
| 20260503235529 | 58 | 0 | 1.0 | 3.0 | 0.00 | 0.00 | 0.00 | 73 | 1011.9 |
| 20260503235032 | 58 | 327 | 1.0 | 3.0 | 0.00 | 0.00 | 0.00 | 74 | 1012.0 |
| 20260503234538 | 58 | 0 | 0.0 | 3.0 | 0.00 | 0.00 | 0.00 | 73 | 1012.0 |
| 20260503234031 | 58 | 0 | 2.0 | 3.0 | 0.00 | 0.00 | 0.00 | 73 | 1011.9 |
| 20260503233534 | 58 | 5 | 0.0 | 2.0 | 0.00 | 0.00 | 0.00 | 74 | 1012.1 |
| 20260503233040 | 58 | 0 | 0.0 | 3.0 | 0.00 | 0.00 | 0.00 | 74 | 1012.1 |
| 20260503232532 | 58 | 0 | 0.0 | 3.0 | 0.00 | 0.00 | 0.00 | 73 | 1012.2 |
| 20260503232032 | 58 | 327 | 0.0 | 3.0 | 0.00 | 0.00 | 0.00 | 73 | 1012.4 |
| 20260503231542 | 58 | 0 | 0.0 | 3.0 | 0.00 | 0.00 | 0.00 | 73 | 1012.4 |
| 20260503231031 | 58 | 0 | 0.0 | 3.0 | 0.00 | 0.00 | 0.00 | 73 | 1012.2 |
| 20260503230530 | 58 | 352 | 1.0 | 3.0 | 0.00 | 0.00 | 0.00 | 73 | 1012.2 |
| 20260503230043 | 58 | 29 | 1.0 | 3.0 | 0.00 | 0.00 | 0.00 | 74 | 1012.3 |
| 20260503225530 | 58 | 344 | 1.0 | 4.0 | 0.00 | 0.00 | 0.00 | 74 | 1012.4 |
| 20260503225030 | 58 | 5 | 0.0 | 6.0 | 0.00 | 0.00 | 0.00 | 74 | 1012.3 |
| 20260503224542 | 58 | 335 | 2.0 | 6.0 | 0.00 | 0.00 | 0.00 | 74 | 1012.5 |
| 20260503224034 | 58 | 331 | 2.0 | 5.0 | 0.00 | 0.00 | 0.00 | 74 | 1012.6 |
| 20260503223530 | 57 | 315 | 1.0 | 5.0 | 0.00 | 0.00 | 0.00 | 75 | 1012.6 |
| 20260503223038 | 57 | 0 | 1.0 | 8.0 | 0.00 | 0.00 | 0.00 | 75 | 1012.5 |
| 20260503222530 | 57 | 21 | 3.0 | 9.0 | 0.00 | 0.00 | 0.00 | 75 | 1012.5 |
| 20260503222029 | 57 | 329 | 3.0 | 9.0 | 0.00 | 0.00 | 0.00 | 74 | 1012.6 |
| 20260503221540 | 57 | 350 | 3.0 | 8.0 | 0.00 | 0.00 | 0.00 | 75 | 1012.5 |
| 20260503221028 | 57 | 352 | 1.0 | 5.0 | 0.00 | 0.00 | 0.00 | 74 | 1012.4 |
| 20260503220531 | 57 | 0 | 1.0 | 6.0 | 0.00 | 0.00 | 0.00 | 74 | 1012.6 |
| 20260503220039 | 56 | 271 | 1.0 | 6.0 | 0.00 | 0.00 | 0.00 | 76 | 1012.5 |
| 20260503215532 | 56 | 334 | 2.0 | 8.0 | 0.00 | 0.00 | 0.00 | 75 | 1012.7 |
| 20260503215033 | 56 | 350 | 2.0 | 8.0 | 0.00 | 0.00 | 0.00 | 75 | 1012.5 |
| 20260503214544 | 56 | 346 | 2.0 | 8.0 | 0.00 | 0.00 | 0.00 | 75 | 1012.6 |
| 20260503214029 | 56 | 352 | 2.0 | 8.0 | 0.00 | 0.00 | 0.00 | 75 | 1012.5 |
| 20260503213529 | 56 | 330 | 4.0 | 8.0 | 0.00 | 0.00 | 0.00 | 75 | 1012.4 |
| 20260503213039 | 56 | 352 | 3.0 | 8.0 | 0.00 | 0.00 | 0.00 | 76 | 1012.3 |
| 20260503212532 | 56 | 352 | 2.0 | 8.0 | 0.00 | 0.00 | 0.00 | 75 | 1012.3 |
| 20260503212029 | 56 | 42 | 3.0 | 10.0 | 0.00 | 0.00 | 0.00 | 75 | 1012.4 |
| 20260503211541 | 56 | 352 | 4.0 | 10.0 | 0.00 | 0.00 | 0.00 | 75 | 1012.4 |
| 20260503211029 | 56 | 331 | 4.0 | 12.0 | 0.00 | 0.00 | 0.00 | 75 | 1012.4 |
| 20260503210530 | 56 | 339 | 5.0 | 12.0 | 0.00 | 0.00 | 0.00 | 75 | 1012.3 |
| 20260503210037 | 57 | 18 | 5.0 | 12.0 | 0.00 | 0.00 | 0.00 | 75 | 1012.2 |
| 20260503205529 | 57 | 343 | 6.0 | 12.0 | 0.00 | 0.00 | 0.00 | 74 | 1012.4 |
| 20260503205031 | 58 | 352 | 4.0 | 9.0 | 0.00 | 0.00 | 0.00 | 75 | 1012.4 |
| 20260503204546 | 58 | 14 | 4.0 | 9.0 | 0.00 | 0.00 | 0.00 | 74 | 1012.4 |
| 20260503204031 | 58 | 24 | 3.0 | 9.0 | 0.00 | 0.00 | 0.00 | 75 | 1012.4 |
| 20260503203534 | 58 | 318 | 2.0 | 9.0 | 0.00 | 0.00 | 0.00 | 74 | 1012.4 |
| 20260503203042 | 58 | 13 | 4.0 | 9.0 | 0.00 | 0.00 | 0.00 | 74 | 1012.4 |
| 20260503202530 | 58 | 352 | 3.0 | 8.0 | 0.00 | 0.00 | 0.00 | 74 | 1012.2 |
| 20260503202033 | 58 | 360 | 3.0 | 8.0 | 0.00 | 0.00 | 0.00 | 73 | 1012.2 |
| 20260503201538 | 58 | 309 | 3.0 | 9.0 | 0.00 | 0.00 | 0.00 | 73 | 1012.2 |
| 20260503201029 | 59 | 315 | 3.0 | 9.0 | 0.00 | 0.00 | 0.00 | 73 | 1012.2 |
| 20260503200532 | 58 | 312 | 2.0 | 5.0 | 0.00 | 0.00 | 0.00 | 75 | 1012.2 |
| 20260503200043 | 58 | 25 | 2.0 | 10.0 | 0.00 | 0.00 | 0.00 | 74 | 1012.4 |
| 20260503195532 | 58 | 344 | 4.0 | 10.0 | 0.00 | 0.00 | 0.00 | 73 | 1012.3 |
| 20260503195030 | 58 | 16 | 4.0 | 10.0 | 0.00 | 0.00 | 0.00 | 72 | 1012.4 |
| 20260503194539 | 58 | 338 | 3.0 | 7.0 | 0.00 | 0.00 | 0.00 | 75 | 1012.4 |
| 20260503194029 | 57 | 330 | 3.0 | 9.0 | 0.00 | 0.00 | 0.00 | 75 | 1012.4 |
| 20260503193534 | 57 | 343 | 3.0 | 9.0 | 0.00 | 0.00 | 0.00 | 76 | 1012.5 |
| 20260503193039 | 57 | 24 | 3.0 | 11.0 | 0.00 | 0.00 | 0.00 | 77 | 1012.5 |
| 20260503192530 | 56 | 25 | 4.0 | 11.0 | 0.00 | 0.00 | 0.00 | 77 | 1012.4 |
| 20260503192032 | 57 | 329 | 3.0 | 10.0 | 0.00 | 0.00 | 0.00 | 76 | 1012.5 |
| 20260503191538 | 57 | 5 | 5.0 | 10.0 | 0.00 | 0.00 | 0.00 | 75 | 1012.4 |
| 20260503191030 | 57 | 5 | 2.0 | 8.0 | 0.00 | 0.00 | 0.00 | 77 | 1012.4 |
| 20260503190531 | 57 | 335 | 4.0 | 12.0 | 0.00 | 0.00 | 0.00 | 75 | 1012.2 |
| 20260503190038 | 57 | 319 | 4.0 | 12.0 | 0.00 | 0.00 | 0.00 | 74 | 1012.3 |
| 20260503185530 | 58 | 343 | 4.0 | 10.0 | 0.00 | 0.00 | 0.00 | 76 | 1012.5 |
| 20260503185031 | 57 | 325 | 2.0 | 13.0 | 0.00 | 0.00 | 0.00 | 76 | 1012.4 |
| 20260503184553 | 57 | 5 | 3.0 | 13.0 | 0.00 | 0.00 | 0.00 | 76 | 1012.5 |
| 20260503184030 | 57 | 5 | 5.0 | 11.0 | 0.00 | 0.00 | 0.00 | 78 | 1012.4 |
| 20260503183527 | 56 | 44 | 2.0 | 10.0 | 0.00 | 0.00 | 0.00 | 79 | 1012.5 |
| 20260503183047 | 56 | 320 | 4.0 | 9.0 | 0.00 | 0.00 | 0.00 | 81 | 1012.5 |
| 20260503182527 | 55 | 346 | 3.0 | 7.0 | 0.00 | 0.00 | 0.00 | 80 | 1012.4 |
| 20260503182028 | 55 | 348 | 2.0 | 10.0 | 0.00 | 0.00 | 0.00 | 81 | 1012.4 |
| 20260503181543 | 55 | 351 | 3.0 | 10.0 | 0.00 | 0.00 | 0.00 | 81 | 1012.4 |
| 20260503181032 | 55 | 352 | 3.0 | 12.0 | 0.00 | 0.00 | 0.00 | 81 | 1012.6 |
| 20260503180528 | 55 | 312 | 4.0 | 12.0 | 0.00 | 0.00 | 0.00 | 81 | 1012.5 |
| 20260503180040 | 55 | 340 | 6.0 | 12.0 | 0.00 | 0.00 | 0.00 | 81 | 1012.5 |
| 20260503175529 | 54 | 294 | 2.0 | 11.0 | 0.00 | 0.00 | 0.00 | 85 | 1012.6 |
| 20260503175029 | 53 | 17 | 4.0 | 11.0 | 0.00 | 0.00 | 0.00 | 85 | 1012.5 |
| 20260503174538 | 53 | 330 | 3.0 | 10.0 | 0.00 | 0.00 | 0.00 | 84 | 1012.4 |
| 20260503174032 | 53 | 281 | 2.0 | 10.0 | 0.00 | 0.00 | 0.00 | 86 | 1012.4 |
| 20260503173530 | 53 | 341 | 3.0 | 10.0 | 0.00 | 0.00 | 0.00 | 86 | 1012.4 |
| 20260503173037 | 53 | 19 | 4.0 | 7.0 | 0.00 | 0.00 | 0.00 | 86 | 1012.2 |
| 20260503172532 | 53 | 352 | 3.0 | 6.0 | 0.00 | 0.00 | 0.00 | 84 | 1012.1 |
| 20260503172032 | 53 | 352 | 1.0 | 5.0 | 0.00 | 0.00 | 0.00 | 83 | 1011.6 |
| 20260503171603 | 54 | 206 | 1.0 | 5.0 | 0.00 | 0.00 | 0.00 | 81 | 1011.7 |
| 20260503171028 | 54 | 336 | 1.0 | 10.0 | 0.00 | 0.00 | 0.00 | 81 | 1012.4 |
| 20260503170531 | 54 | 285 | 3.0 | 10.0 | 0.00 | 0.00 | 0.00 | 82 | 1012.5 |
| 20260503150529 | 51 | 302 | 1.0 | 8.0 | 0.00 | 0.00 | 0.00 | 87 | 1011.3 |
| 20260503131032 | 50 | 0 | 0.0 | 2.0 | 0.00 | 0.00 | 0.00 | 90 | 1009.7 |
| 20260503130530 | 50 | 0 | 0.0 | 2.0 | 0.00 | 0.00 | 0.00 | 90 | 1009.7 |
| 20260503110531 | 54 | 0 | 0.0 | 0.0 | 0.00 | 0.00 | 0.00 | 87 | 1009.5 |
| 20260503081541 | 56 | 0 | 0.0 | 1.0 | 0.00 | 0.00 | 0.00 | 84 | 1010.5 |
| 20260503081030 | 56 | 0 | 0.0 | 0.0 | 0.00 | 0.00 | 0.00 | 83 | 1010.5 |
| 20260503080527 | 57 | 0 | 0.0 | 0.0 | 0.00 | 0.00 | 0.00 | 83 | 1010.6 |
| 20260503072530 | 57 | 0 | 0.0 | 2.0 | 0.00 | 0.00 | 0.00 | 82 | 1011.1 |
| 20260503072029 | 57 | 0 | 0.0 | 1.0 | 0.00 | 0.00 | 0.00 | 82 | 1011.1 |
| 20260503071552 | 57 | 0 | 0.0 | 0.0 | 0.00 | 0.00 | 0.00 | 81 | 1011.2 |
| 20260503071027 | 57 | 0 | 0.0 | 0.0 | 0.00 | 0.00 | 0.00 | 81 | 1011.2 |
| 20260503070529 | 58 | 0 | 0.0 | 0.0 | 0.00 | 0.00 | 0.00 | 81 | 1011.2 |
| 20260503055027 | 60 | 0 | 0.0 | 1.0 | 0.00 | 0.00 | 0.00 | 76 | 1011.4 |
| 20260503054555 | 60 | 0 | 0.0 | 1.0 | 0.00 | 0.00 | 0.00 | 76 | 1011.5 |
| 20260503054029 | 60 | 0 | 0.0 | 1.0 | 0.00 | 0.00 | 0.00 | 77 | 1011.6 |
| 20260503053529 | 61 | 0 | 0.0 | 1.0 | 0.00 | 0.00 | 0.00 | 75 | 1011.6 |
| 20260503053040 | 61 | 0 | 0.0 | 1.0 | 0.00 | 0.00 | 0.00 | 73 | 1011.6 |
| 20260503052529 | 61 | 0 | 0.0 | 2.0 | 0.00 | 0.00 | 0.00 | 74 | 1011.7 |
| 20260503052029 | 61 | 0 | 0.0 | 2.0 | 0.00 | 0.00 | 0.00 | 73 | 1011.6 |